Binghamton, NY

7:22 PM EST on December 07, 2019 (GMT -0500)
Binghamton Regional-Link

Weather History for KBGM - October, 2019

Change the Weather History Date:

Thursday, October 24, 2019

  Actual Average Record
Temperature  
Mean Temperature 53 °F 46 °F  
Max Temperature 64 °F 54 °F 72 °F (1963)
Min Temperature 41 °F 38 °F 22 °F (1969)
Degree Days  
Heating Degree Days 12 19  
Month to date heating degree days 356 372  
Since 1 July heating degree days 529 629  
Cooling Degree Days 0 0  
Month to date cooling degree days 5 0  
Year to date cooling degree days 389 379  
Growing Degree Days 2 (Base 50)    
Moisture  
Dew Point 32 °F    
Average Humidity 49    
Maximum Humidity 71    
Minimum Humidity 27    
Precipitation  
Precipitation 0.00 in 0.10 in 1.29 in (2009)
Month to date precipitation 4.98 2.59  
Year to date precipitation 35.64 32.43  
Snow  
Snow 0.00 in 0.00 in 0.40 in (1960)
Month to date snowfall 0.0 0.5  
Since 1 July snowfall 0.0 0.5  
Since 1 September snowfall 0.0 0.5  
Snow Depth 0.00 in    
Sea Level Pressure  
Sea Level Pressure 30.22 in    
Wind  
Wind Speed 10 mph (SW)    
Max Wind Speed 22 mph    
Max Gust Speed 32 mph    
Visibility 10 miles    
Events      
T = Trace of Precipitation, MM = Missing Value Source: NWS Daily Summary

Daily Weather History Graph

Daily Weather History Graph

Search for Another Location

Airport or City:

Astronomy

Oct. 24, 2019 Rise Set
Actual Time 7:26 AM EDT 6:08 PM EDT
Civil Twilight 6:58 AM EDT 6:37 PM EDT
Nautical Twilight 6:25 AM EDT 7:10 PM EDT
Astronomical Twilight 5:53 AM EDT 7:42 PM EDT
Moon 2:47 AM EDT (10/24) 4:40 PM EDT (10/24)
Length of Visible Light 11h 39m
Length of Day
10h 41m
Waning Crescent, 17% of the Moon is Illuminated
Oct 24
Waning Crescent
Oct 27
New
Nov 4
First Quarter
Nov 12
Full
Nov 19
Last Quarter

Hourly Weather History & Observations

Time (EDT) Temp. Windchill Dew Point Humidity Pressure Visibility Wind Dir Wind Speed Gust Speed Precip Events Conditions
12:53 AM 44.1 °F 39.5 °F 28.0 °F 53% 30.17 in 10.0 mi SW 8.1 mph - N/A   Clear
1:53 AM 43.0 °F 38.2 °F 28.9 °F 58% 30.18 in 10.0 mi SW 8.1 mph - N/A   Clear
2:53 AM 44.1 °F 40.1 °F 28.9 °F 55% 30.18 in 10.0 mi SW 6.9 mph - N/A   Clear
3:53 AM 42.1 °F 37.1 °F 28.9 °F 60% 30.19 in 10.0 mi WSW 8.1 mph - N/A   Clear
4:53 AM 42.1 °F 37.7 °F 28.9 °F 60% 30.21 in 10.0 mi SW 6.9 mph - N/A   Clear
5:53 AM 43.0 °F 38.8 °F 28.9 °F 58% 30.23 in 10.0 mi SSW 6.9 mph - N/A   Clear
6:53 AM 43.0 °F 37.7 °F 28.9 °F 58% 30.23 in 10.0 mi SW 9.2 mph - N/A   Clear
7:53 AM 44.1 °F 39.0 °F 30.0 °F 58% 30.23 in 10.0 mi SSW 9.2 mph - N/A   Clear
8:53 AM 46.0 °F 41.4 °F 30.9 °F 56% 30.25 in 10.0 mi SSW 9.2 mph - N/A   Clear
9:53 AM 48.9 °F - 30.9 °F 50% 30.25 in 10.0 mi SSW 10.4 mph - N/A   Clear
10:53 AM 53.1 °F - 33.1 °F 47% 30.26 in 10.0 mi SW 12.7 mph 19.6 mph N/A   Clear
11:53 AM 57.9 °F - 30.9 °F 36% 30.24 in 10.0 mi SW 13.8 mph 21.9 mph N/A   Clear
12:53 PM 61.0 °F - 30.9 °F 32% 30.20 in 10.0 mi SSW 16.1 mph 24.2 mph N/A   Clear
1:53 PM 63.0 °F - 28.9 °F 28% 30.19 in 10.0 mi SW 17.3 mph 28.8 mph N/A   Clear
2:53 PM 63.0 °F - 28.9 °F 28% 30.18 in 10.0 mi WSW 17.3 mph 32.2 mph N/A   Mostly Cloudy
3:53 PM 63.0 °F - 30.0 °F 29% 30.18 in 10.0 mi WSW 15.0 mph 21.9 mph N/A   Clear
4:53 PM 62.1 °F - 30.0 °F 30% 30.19 in 10.0 mi SW 12.7 mph 23.0 mph N/A   Clear
5:53 PM 60.1 °F - 30.9 °F 33% 30.20 in 10.0 mi SW 11.5 mph - N/A   Clear
6:53 PM 55.9 °F - 32.0 °F 40% 30.23 in 10.0 mi NW 4.6 mph - N/A   Clear
7:53 PM 54.0 °F - 37.0 °F 53% 30.26 in 10.0 mi NNW 4.6 mph - N/A   Clear
8:53 PM 48.9 °F - 37.9 °F 66% 30.27 in 10.0 mi North 6.9 mph - N/A   Clear
9:53 PM 48.9 °F - 39.0 °F 69% 30.28 in 10.0 mi North 4.6 mph - N/A   Clear
10:53 PM 48.9 °F - 39.0 °F 69% 30.30 in 10.0 mi NNE 5.8 mph - N/A   Clear
11:53 PM 48.9 °F - 39.0 °F 69% 30.30 in 10.0 mi NE 4.6 mph - N/A   Mostly Cloudy